Flight Track Log - Related Links

Times and Time Zones

All times are in EDT time to prevent confusion due to time zone crossing. See the ASQ4209 flight status page for this flight to view local times or setup timezone preferences in your user account.

Time Position Orientation Groundspeed Altitude Reporting Facility
EDT Latitude Longitude Course Direction KTS MPH feet Rate Location/Type
Sat 04:50:54 PM 30.5906 -91.1883 268° West 284 327 5,400  Level Houston Center
Sat 04:51:56 PM 30.5683 -91.2703 253° West 269 310 8,000 2,177 Climbing Houston Center
Sat 04:52:00 PM 30.4678 -91.5275 257° West  Level FlightAware Approximate
Sat 04:52:58 PM 30.5414 -91.3578 250° West 281 323 9,900  Level Houston Center
Sat 04:53:00 PM 30.4475 -91.6265 254° West  Level FlightAware Approximate
Sat 04:53:59 PM 30.4958 -91.4653 244° Southwest 349 402 10,900  Level Houston Center
Sat 04:54:00 PM 30.4084 -91.7145 227° Southwest  Level FlightAware Approximate
Sat 04:55:00 PM 30.3454 -91.7919 226° Southwest  Level FlightAware Approximate
Sat 04:55:01 PM 30.4336 -91.5769 237° Southwest 361 415 12,800  Level Houston Center
Sat 04:56:03 PM 30.3758 -91.6753 236° Southwest 366 421 14,300 1,403 Climbing Houston Center
Sat 04:57:05 PM 30.3156 -91.7836 237° Southwest 374 430 15,700 1,306 Climbing Houston Center
Sat 04:58:07 PM 30.2539 -91.8872 235° Southwest 384 442 17,000 1,122 Climbing Houston Center
Sat 04:59:08 PM 30.1975 -91.9853 236° Southwest 389 448 18,000 976 Climbing Houston Center
Sat 05:00:10 PM 30.1306 -92.0889 233° Southwest 398 458 19,000 968 Climbing Houston Center
Sat 05:01:12 PM 30.0717 -92.2328 245° Southwest 415 478 20,000 484 Climbing Houston Center
Sat 05:02:14 PM 30.0389 -92.3656 254° West 427 491 20,000 -48 Level Houston Center
Sat 05:03:16 PM 30.0050 -92.5019 254° West 439 505 19,900 -49 Descending Houston Center
Sat 05:04:17 PM 29.9764 -92.6172 254° West 383 441 19,900 49 Level Houston Center
Sat 05:05:19 PM 29.9506 -92.7236 254° West 349 402 20,000 48 Climbing Houston Center
Sat 05:06:21 PM 29.9233 -92.8347 254° West 357 411 20,000  Level Houston Center
Sat 05:07:23 PM 29.8944 -92.9489 254° West 369 425 20,000  Level Houston Center
Sat 05:08:25 PM 29.8592 -93.0878 254° West 374 430 20,000  Level Houston Center
Sat 05:09:27 PM 29.8294 -93.2039 254° West 376 433 20,000  Level Houston Center
Sat 05:10:28 PM 29.7972 -93.3286 253° West 401 461 20,000  Level Houston Center
Sat 05:11:30 PM 29.7642 -93.4569 254° West 413 475 20,000  Level Houston Center
Sat 05:12:32 PM 29.7306 -93.5858 253° West 418 481 20,000  Level Houston Center
Sat 05:13:34 PM 29.6967 -93.7197 254° West 428 493 20,000  Level Houston Center
Sat 05:14:36 PM 29.6622 -93.8508 253° West 429 494 20,000 -290 Level Houston Center
Sat 05:15:38 PM 29.6278 -93.9847 254° West 432 497 19,400 -1,951 Descending Houston Center
Sat 05:16:39 PM 29.5872 -94.1408 253° West 426 490 16,000 -2,780 Descending Houston Center
Sat 05:17:41 PM 29.5583 -94.2517 253° West 391 450 13,700 -1,403 Descending Houston Center
Sat 05:18:43 PM 29.5442 -94.3664 262° West 361 415 13,100 -774 Descending Houston Center
Sat 05:19:45 PM 29.5617 -94.4722 281° West 341 392 12,100 -1,210 Descending Houston Center
Sat 05:20:47 PM 29.6000 -94.5603 297° West 319 367 10,600 -1,629 Descending Houston Center
Sat 05:22:05 PM 29.6728 -94.6639 309° West 288 331 8,300 -1,415 Descending Houston Center
Sat 05:22:50 PM 29.7147 -94.7042 320° Northwest 269 310 7,700 -785 Descending Houston Center
Sat 05:23:52 PM 29.7700 -94.7628 317° Northwest 272 313 6,900 -387 Descending Houston Center
Sat 05:24:54 PM 29.8253 -94.8200 318° Northwest 269 310 6,900 -435 Level Houston Center
Sat 05:25:56 PM 29.8794 -94.8769 318° Northwest 265 305 6,000 -878 Descending Houston Center
Sat 05:26:57 PM 29.9253 -94.9425 309° West 270 311 5,100 -838 Descending Houston Center
Sat 05:28:12 PM 29.9644 -95.0561 292° West 265 305 4,100 -800 Descending Houston Center

Login

Don't have an account? Register now (free) for customized features, flight alerts, and more!